Retour au catalogue

STARLINK-4609

ActifCommunicationsVLEO
NORAD 53619·PAYLOAD·🇺🇸 United States

Lancé Aug 28, 2022 depuis Cape Canaveral Space Force Station

Loading…

Prochains Passages (prochaines 24 heures)

TLE

FraisSource: CelesTrak SupGP

Époque: Sep 15, 2026, 01:40 UTC

1 53619C 22104AH  26258.06993056  .00016690  00000+0  49314-3 0  2587
2 53619  53.1583  93.1240 0000865  83.0217 164.0587 15.34380346    19

Suivez STARLINK-4609 en temps réel avec AllMySat

Download on the App Store